This is the latest recevied weather packets stored in our database for station/object KD9JB-1. If no packets are shown the sender has not sent any weather packets the latest 10 day(s).
| Time | Temp. | Humidity | Pressure | Rain* | Wind** | Luminosity | Snow |
|---|---|---|---|---|---|---|---|
| 1777502509 | 18.33° C | 49% | 1013.9 hPa | 0 mm | - | - | - |
| 1777502209 | 18.33° C | 51% | 1014 hPa | 0 mm | - | - | - |
| 1777501909 | 18.89° C | 50% | 1013.8 hPa | 0 mm | - | - | - |
| 1777501609 | 18.89° C | 52% | 1013.8 hPa | 0 mm | - | - | - |
| 1777501309 | 18.33° C | 53% | 1013.8 hPa | 0 mm | - | - | - |
| 1777501009 | 18.89° C | 50% | 1013.8 hPa | 0 mm | - | - | - |
| 1777500709 | 18.89° C | 49% | 1013.8 hPa | 0 mm | - | - | - |
| 1777500409 | 18.89° C | 49% | 1013.8 hPa | 0 mm | - | - | - |
| 1777500109 | 18.89° C | 50% | 1013.8 hPa | 0 mm | - | - | - |
| 1777499809 | 18.89° C | 49% | 1013.6 hPa | 0 mm | - | - | - |
| 1777499509 | 18.89° C | 49% | 1013.6 hPa | 0 mm | - | - | - |
| 1777499209 | 18.89° C | 51% | 1013.6 hPa | 0 mm | - | - | - |
| 1777498909 | 18.89° C | 51% | 1013.7 hPa | 0 mm | - | - | - |
| 1777498609 | 18.89° C | 50% | 1013.8 hPa | 0 mm | - | - | - |
| 1777498309 | 18.89° C | 50% | 1013.6 hPa | 0 mm | - | - | - |
| 1777498009 | 18.33° C | 53% | 1013.5 hPa | 0 mm | - | - | - |
| 1777497709 | 18.33° C | 51% | 1013.7 hPa | 0 mm | - | - | - |
| 1777497409 | 18.33° C | 51% | 1013.8 hPa | 0 mm | - | - | - |
| 1777497109 | 18.89° C | 50% | 1013.8 hPa | 0 mm | - | - | - |
| 1777496809 | 19.44° C | 50% | 1013.7 hPa | 0 mm | - | - | - |
| 1777496509 | 18.89° C | 49% | 1013.8 hPa | 0 mm | - | - | - |
| 1777496209 | 18.89° C | 49% | 1013.9 hPa | 0 mm | - | - | - |
| 1777495909 | 18.33° C | 52% | 1013.9 hPa | 0 mm | - | - | - |
| 1777495609 | 18.89° C | 50% | 1014 hPa | 0 mm | - | - | - |
| 1777495309 | 18.89° C | 52% | 1014 hPa | 0 mm | - | - | - |
* Rain latest hour (hover to see other rain measurements)
** Current wind speed in m/s (hover to see current wind gust speed)